• In United Kingdom
  • List of Countries
  • For 7 days
  • Water Temperature
  • Satellite Maps
  • Weather Map
  • Weather Widgets
  • user-avatar
    Login

    Hourly Weather Zaragoza

    Today, 20 June, Wednesday

    Time Temperature Precipitation Wind Pressure Humidity
    00:00 +25°C° 0 mm 1 mps 747 mmHg 60%
    01:00 +25°C° 0 mm 1 mps 747 mmHg 62%
    02:00 +24°C° 0 mm 1 mps 747 mmHg 64%
    03:00 +24°C° 0 mm 1 mps 746 mmHg 66%
    04:00 +24°C° 0 mm 2 mps 746 mmHg 64%
    05:00 +24°C° 0 mm 2 mps 747 mmHg 62%
    06:00 +25°C° 0 mm 2 mps 747 mmHg 59%
    07:00 +27°C° 0 mm 2 mps 746 mmHg 54%
    08:00 +28°C° 0 mm 3 mps 746 mmHg 48%
    09:00 +30°C° 0 mm 3 mps 746 mmHg 43%
    10:00 +31°C° 0 mm 3 mps 746 mmHg 39%
    11:00 +33°C° 0 mm 3 mps 746 mmHg 34%
    12:00 +34°C° 0 mm 4 mps 746 mmHg 33%
    13:00 +35°C° 0 mm 4 mps 746 mmHg 30%
    14:00 +35°C° 0 mm 4 mps 746 mmHg 27%
    15:00 +36°C° 0 mm 4 mps 745 mmHg 24%
    16:00 +36°C° 0 mm 4 mps 745 mmHg 24%
    17:00 +36°C° 0 mm 4 mps 745 mmHg 24%
    18:00 +35°C° 0 mm 4 mps 745 mmHg 25%
    19:00 +33°C° 0 mm 4 mps 746 mmHg 29%
    20:00 +32°C° 0 mm 4 mps 746 mmHg 34%
    21:00 +29°C° 0 mm 3 mps 746 mmHg 39%
    22:00 +28°C° 0 mm 3 mps 746 mmHg 42%
    23:00 +27°C° 0 mm 3 mps 746 mmHg 45%

    Tomorrow, 21 June, Thursday

    Time Temperature Precipitation Wind Pressure Humidity
    00:00 +26°C° 0 mm 2 mps 747 mmHg 48%
    01:00 +26°C° 0 mm 2 mps 746 mmHg 50%
    02:00 +25°C° 0 mm 2 mps 746 mmHg 52%
    03:00 +24°C° 0 mm 1 mps 746 mmHg 53%
    04:00 +25°C° 0 mm 1 mps 746 mmHg 52%
    05:00 +25°C° 0 mm 1 mps 746 mmHg 51%
    06:00 +26°C° 0 mm 1 mps 746 mmHg 50%
    07:00 +27°C° 0 mm 1 mps 746 mmHg 45%
    08:00 +29°C° 0 mm 1 mps 746 mmHg 40%
    09:00 +30°C° 0 mm 1 mps 746 mmHg 36%
    10:00 +31°C° 0 mm 2 mps 746 mmHg 33%
    11:00 +34°C° 0 mm 2 mps 746 mmHg 30%
    12:00 +35°C° 0 mm 2 mps 746 mmHg 28%
    13:00 +35°C° 0 mm 2 mps 745 mmHg 27%
    14:00 +36°C° 0 mm 2 mps 745 mmHg 26%
    15:00 +37°C° 0 mm 2 mps 745 mmHg 25%
    16:00 +37°C° 0 mm 3 mps 745 mmHg 26%
    17:00 +36°C° 0 mm 3 mps 745 mmHg 27%
    18:00 +36°C° 0 mm 4 mps 745 mmHg 28%
    19:00 +34°C° 0 mm 4 mps 745 mmHg 37%
    20:00 +32°C° 0 mm 5 mps 746 mmHg 45%
    21:00 +29°C° 0 mm 5 mps 746 mmHg 54%
    22:00 +28°C° 0 mm 5 mps 746 mmHg 57%
    23:00 +27°C° 0 mm 4 mps 746 mmHg 61%

    Day after tomorrow, 22 June, Friday

    Time Temperature Precipitation Wind Pressure Humidity
    00:00 +26°C° 0 mm 4 mps 746 mmHg 64%
    01:00 +25°C° 0 mm 4 mps 746 mmHg 66%
    02:00 +25°C° 0 mm 4 mps 746 mmHg 68%
    03:00 +23°C° 0 mm 4 mps 746 mmHg 70%
    04:00 +23°C° 0 mm 4 mps 746 mmHg 71%
    05:00 +23°C° 0 mm 4 mps 746 mmHg 71%
    06:00 +23°C° 0 mm 5 mps 746 mmHg 72%
    07:00 +26°C° 0 mm 5 mps 746 mmHg 66%
    08:00 +28°C° 0 mm 5 mps 746 mmHg 60%
    09:00 +29°C° 0 mm 5 mps 746 mmHg 54%
    10:00 +32°C° 0 mm 5 mps 745 mmHg 49%
    11:00 +33°C° 0 mm 5 mps 745 mmHg 44%
    12:00 +35°C° 0 mm 5 mps 745 mmHg 38%
    13:00 +35°C° 0 mm 5 mps 745 mmHg 37%
    14:00 +36°C° 0 mm 6 mps 744 mmHg 36%
    15:00 +36°C° 0 mm 6 mps 744 mmHg 35%
    16:00 +35°C° 0 mm 6 mps 744 mmHg 37%
    17:00 +34°C° 0 mm 7 mps 744 mmHg 39%
    18:00 +33°C° 0 mm 7 mps 744 mmHg 41%
    19:00 +32°C° 0.1 mm 6 mps 744 mmHg 47%
    20:00 +29°C° 0.1 mm 6 mps 745 mmHg 52%
    21:00 +27°C° 0.1 mm 5 mps 745 mmHg 57%
    22:00 +26°C° 0 mm 5 mps 745 mmHg 60%
    23:00 +25°C° 0 mm 5 mps 745 mmHg 62%

    23 June, Saturday

    Time Temperature Precipitation Wind Pressure Humidity
    00:00 +23°C° 0 mm 4 mps 745 mmHg 64%
    01:00 +23°C° 0 mm 4 mps 745 mmHg 65%
    02:00 +22°C° 0 mm 3 mps 745 mmHg 66%
    03:00 +23°C° 0 mm 2 mps 745 mmHg 66%
    04:00 +23°C° 0 mm 2 mps 745 mmHg 65%
    05:00 +23°C° 0 mm 2 mps 745 mmHg 63%
    06:00 +23°C° 0 mm 2 mps 745 mmHg 61%
    07:00 +25°C° 0 mm 2 mps 745 mmHg 56%
    08:00 +27°C° 0 mm 2 mps 745 mmHg 50%
    09:00 +28°C° 0 mm 2 mps 745 mmHg 44%
    10:00 +30°C° 0 mm 2 mps 745 mmHg 40%
    11:00 +32°C° 0 mm 2 mps 745 mmHg 36%
    12:00 +34°C° 0 mm 2 mps 745 mmHg 31%
    13:00 +35°C° 0 mm 2 mps 745 mmHg 30%
    14:00 +36°C° 0 mm 2 mps 744 mmHg 28%
    15:00 +37°C° 0 mm 3 mps 744 mmHg 27%
    16:00 +37°C° 0 mm 3 mps 744 mmHg 28%
    17:00 +36°C° 0 mm 3 mps 744 mmHg 29%
    18:00 +36°C° 0 mm 4 mps 744 mmHg 29%
    19:00 +34°C° 0 mm 3 mps 744 mmHg 35%
    20:00 +31°C° 0 mm 3 mps 745 mmHg 40%
    21:00 +30°C° 0 mm 2 mps 745 mmHg 45%
    22:00 +29°C° 0 mm 2 mps 745 mmHg 50%
    23:00 +28°C° 0 mm 2 mps 745 mmHg 55%

    24 June, Sunday

    Time Temperature Precipitation Wind Pressure Humidity
    00:00 +27°C° 0 mm 2 mps 745 mmHg 59%
    01:00 +26°C° 0 mm 2 mps 745 mmHg 63%
    02:00 +25°C° 0 mm 2 mps 745 mmHg 67%
    03:00 +24°C° 0 mm 2 mps 745 mmHg 70%
    04:00 +25°C° 0 mm 2 mps 745 mmHg 69%
    05:00 +25°C° 0 mm 2 mps 745 mmHg 69%
    06:00 +25°C° 0 mm 2 mps 745 mmHg 68%
    07:00 +27°C° 0 mm 2 mps 745 mmHg 62%
    08:00 +28°C° 0 mm 2 mps 745 mmHg 55%
    09:00 +30°C° 0 mm 2 mps 745 mmHg 49%
    10:00 +31°C° 0 mm 2 mps 744 mmHg 44%
    11:00 +34°C° 0 mm 2 mps 744 mmHg 39%
    12:00 +36°C° 0 mm 2 mps 744 mmHg 35%
    13:00 +37°C° 0 mm 2 mps 744 mmHg 32%
    14:00 +38°C° 0 mm 2 mps 743 mmHg 30%
    15:00 +39°C° 0 mm 2 mps 743 mmHg 27%
    16:00 +38°C° 0 mm 3 mps 743 mmHg 27%
    17:00 +38°C° 0 mm 3 mps 743 mmHg 28%
    18:00 +38°C° 0 mm 4 mps 743 mmHg 28%
    19:00 +36°C° 0 mm 3 mps 743 mmHg 33%
    20:00 +35°C° 0 mm 3 mps 744 mmHg 38%
    21:00 +33°C° 0 mm 3 mps 744 mmHg 43%
    22:00 +31°C° 0 mm 3 mps 744 mmHg 48%
    23:00 +29°C° 0 mm 4 mps 744 mmHg 53%

    25 June, Monday

    Time Temperature Precipitation Wind Pressure Humidity
    00:00 +28°C° 0 mm 4 mps 744 mmHg 58%
    01:00 +27°C° 0 mm 4 mps 744 mmHg 60%
    02:00 +26°C° 0 mm 3 mps 744 mmHg 63%
    03:00 +26°C° 0 mm 3 mps 744 mmHg 65%
    04:00 +26°C° 0 mm 3 mps 744 mmHg 65%
    05:00 +26°C° 0 mm 2 mps 744 mmHg 65%
    06:00 +26°C° 0 mm 2 mps 744 mmHg 64%
    07:00 +27°C° 0.1 mm 3 mps 744 mmHg 59%
    08:00 +29°C° 0.1 mm 3 mps 744 mmHg 53%
    09:00 +30°C° 0.1 mm 3 mps 744 mmHg 48%
    10:00 +33°C° 0 mm 3 mps 744 mmHg 44%
    11:00 +34°C° 0 mm 3 mps 743 mmHg 39%
    12:00 +36°C° 0 mm 3 mps 743 mmHg 35%
    13:00 +37°C° 0 mm 4 mps 743 mmHg 33%
    14:00 +38°C° 0 mm 4 mps 743 mmHg 31%
    15:00 +40°C° 0 mm 4 mps 742 mmHg 29%
    16:00 +39°C° 0 mm 5 mps 742 mmHg 32%
    17:00 +38°C° 0 mm 6 mps 742 mmHg 35%
    18:00 +36°C° 0 mm 6 mps 742 mmHg 38%
    19:00 +34°C° 1.3 mm 6 mps 743 mmHg 45%
    20:00 +32°C° 1.3 mm 6 mps 743 mmHg 53%
    21:00 +29°C° 1.3 mm 6 mps 744 mmHg 61%
    22:00 +28°C° 1.2 mm 5 mps 744 mmHg 65%
    23:00 +27°C° 1.2 mm 4 mps 744 mmHg 69%
    Show more